Time,TemperatureF,DewpointF,PressureIn,WindDirection,WindDirectionDegrees,WindSpeedMPH,WindSpeedGustMPH,Humidity,HourlyPrecipIn,Conditions,Clouds,dailyrainin,SoftwareType,DateUTC
2013-07-02 00:10:00,64.9,52.0,29.98,ENE,76,0.0,-999.0,64,-99.99,,,0.00,weatherlink.com 1.10,2013-07-02 04:10:00,
2013-07-02 00:25:00,64.9,53.0,29.99,ENE,76,5.0,-999.0,65,-99.99,,,0.00,weatherlink.com 1.10,2013-07-02 04:25:00,
2013-07-02 00:40:00,64.8,53.0,29.98,ENE,63,0.0,-999.0,65,-99.99,,,0.00,weatherlink.com 1.10,2013-07-02 04:40:00,
2013-07-02 00:55:00,64.6,53.0,29.98,East,82,3.0,-999.0,67,-99.99,,,0.00,weatherlink.com 1.10,2013-07-02 04:55:00,
2013-07-02 01:10:00,64.5,54.0,29.98,ENE,60,0.0,-999.0,69,-99.99,,,0.00,weatherlink.com 1.10,2013-07-02 05:10:00,
2013-07-02 01:25:00,64.5,54.0,29.97,ENE,69,0.0,-999.0,69,-99.99,,,0.00,weatherlink.com 1.10,2013-07-02 05:25:00,
2013-07-02 01:40:00,64.4,55.0,29.97,NE,36,0.0,-999.0,71,-99.99,,,0.00,weatherlink.com 1.10,2013-07-02 05:40:00,
2013-07-02 01:55:00,64.5,56.0,29.97,ENE,74,0.0,-999.0,73,-99.99,,,0.00,weatherlink.com 1.10,2013-07-02 05:55:00,
2013-07-02 02:10:00,64.5,56.0,29.97,ENE,63,0.0,-999.0,74,-99.99,,,0.00,weatherlink.com 1.10,2013-07-02 06:10:00,
2013-07-02 02:25:00,64.6,56.0,29.97,NE,46,0.0,-999.0,73,-99.99,,,0.00,weatherlink.com 1.10,2013-07-02 06:25:00,
2013-07-02 02:41:00,64.5,55.0,29.97,NE,54,3.0,-999.0,72,-99.99,,,0.00,weatherlink.com 1.10,2013-07-02 06:41:00,
2013-07-02 02:56:00,64.4,55.0,29.97,ENE,69,0.0,-999.0,72,-99.99,,,0.00,weatherlink.com 1.10,2013-07-02 06:56:00,
2013-07-02 03:11:00,64.3,55.0,29.97,ENE,78,0.0,-999.0,73,-99.99,,,0.00,weatherlink.com 1.10,2013-07-02 07:11:00,
2013-07-02 03:26:00,64.0,55.0,29.96,ENE,74,0.0,-999.0,73,-99.99,,,0.00,weatherlink.com 1.10,2013-07-02 07:26:00,
2013-07-02 03:41:00,63.5,55.0,29.96,NE,50,0.0,-999.0,74,-99.99,,,0.00,weatherlink.com 1.10,2013-07-02 07:41:00,
2013-07-02 03:56:00,63.2,55.0,29.96,ENE,65,7.0,-999.0,75,-99.99,,,0.00,weatherlink.com 1.10,2013-07-02 07:56:00,
2013-07-02 04:11:00,62.9,55.0,29.96,ENE,66,0.0,-999.0,74,-99.99,,,0.00,weatherlink.com 1.10,2013-07-02 08:11:00,
2013-07-02 04:26:00,62.7,55.0,29.96,ENE,69,0.0,-999.0,75,-99.99,,,0.00,weatherlink.com 1.10,2013-07-02 08:26:00,
2013-07-02 04:41:00,62.5,55.0,29.96,ENE,78,3.0,-999.0,75,-99.99,,,0.00,weatherlink.com 1.10,2013-07-02 08:41:00,
2013-07-02 04:56:00,62.0,55.0,29.96,ENE,62,0.0,-999.0,77,-99.99,,,0.00,weatherlink.com 1.10,2013-07-02 08:56:00,
2013-07-02 05:11:00,61.5,55.0,29.96,NE,54,0.0,-999.0,78,-99.99,,,0.00,weatherlink.com 1.10,2013-07-02 09:11:00,
2013-07-02 05:27:00,61.3,55.0,29.96,ENE,63,0.0,-999.0,79,-99.99,,,0.00,weatherlink.com 1.10,2013-07-02 09:27:00,
2013-07-02 05:42:00,61.2,55.0,29.96,ENE,70,0.0,-999.0,80,-99.99,,,0.00,weatherlink.com 1.10,2013-07-02 09:42:00,
2013-07-02 05:57:00,60.8,55.0,29.97,NE,53,0.0,-999.0,81,-99.99,,,0.00,weatherlink.com 1.10,2013-07-02 09:57:00,
2013-07-02 06:12:00,60.4,54.0,29.97,NE,37,0.0,-999.0,80,-99.99,,,0.00,weatherlink.com 1.10,2013-07-02 10:12:00,
2013-07-02 06:27:00,60.2,54.0,29.97,ENE,62,0.0,-999.0,80,-99.99,,,0.00,weatherlink.com 1.10,2013-07-02 10:27:00,
2013-07-02 06:42:00,59.9,54.0,29.97,ENE,69,7.0,-999.0,81,-99.99,,,0.00,weatherlink.com 1.10,2013-07-02 10:42:00,
2013-07-02 06:57:00,59.1,54.0,29.98,ENE,66,0.0,-999.0,83,-99.99,,,0.00,weatherlink.com 1.10,2013-07-02 10:57:00,
2013-07-02 07:12:00,59.0,55.0,29.98,ENE,65,0.0,-999.0,85,-99.99,,,0.00,weatherlink.com 1.10,2013-07-02 11:12:00,
2013-07-02 07:27:00,58.3,55.0,29.98,NE,44,0.0,-999.0,87,-99.99,,,0.06,weatherlink.com 1.10,2013-07-02 11:27:00,
2013-07-02 07:42:00,57.5,54.0,29.98,ENE,67,0.0,-999.0,88,-99.99,,,0.08,weatherlink.com 1.10,2013-07-02 11:42:00,
2013-07-02 07:57:00,57.4,55.0,29.99,NE,46,0.0,-999.0,90,-99.99,,,0.15,weatherlink.com 1.10,2013-07-02 11:57:00,
2013-07-02 08:13:00,57.1,55.0,29.99,North,5,0.0,-999.0,91,-99.99,,,0.21,weatherlink.com 1.10,2013-07-02 12:13:00,
2013-07-02 08:28:00,57.2,55.0,29.99,NNW,343,0.0,-999.0,92,-99.99,,,0.21,weatherlink.com 1.10,2013-07-02 12:28:00,
2013-07-02 08:43:00,57.5,55.0,29.99,ENE,59,5.0,-999.0,92,-99.99,,,0.21,weatherlink.com 1.10,2013-07-02 12:43:00,
2013-07-02 08:58:00,57.8,56.0,29.99,ENE,57,0.0,-999.0,92,-99.99,,,0.22,weatherlink.com 1.10,2013-07-02 12:58:00,
2013-07-02 09:13:00,57.8,56.0,29.99,East,81,0.0,-999.0,92,-99.99,,,0.22,weatherlink.com 1.10,2013-07-02 13:13:00,
2013-07-02 09:28:00,58.0,56.0,29.99,ENE,71,0.0,-999.0,92,-99.99,,,0.22,weatherlink.com 1.10,2013-07-02 13:28:00,
2013-07-02 09:43:00,58.2,56.0,29.99,ENE,67,0.0,-999.0,92,-99.99,,,0.22,weatherlink.com 1.10,2013-07-02 13:43:00,
2013-07-02 09:58:00,58.4,56.0,29.99,ENE,63,0.0,-999.0,92,-99.99,,,0.22,weatherlink.com 1.10,2013-07-02 13:58:00,
2013-07-02 10:13:00,58.8,57.0,29.98,NE,49,0.0,-999.0,92,-99.99,,,0.22,weatherlink.com 1.10,2013-07-02 14:13:00,
2013-07-02 10:28:00,59.1,57.0,29.99,NE,53,3.0,-999.0,92,-99.99,,,0.22,weatherlink.com 1.10,2013-07-02 14:28:00,
2013-07-02 10:43:00,59.4,57.0,29.99,NE,50,0.0,-999.0,92,-99.99,,,0.22,weatherlink.com 1.10,2013-07-02 14:43:00,
2013-07-02 10:58:00,59.6,57.0,29.99,NNE,22,3.0,-999.0,92,-99.99,,,0.22,weatherlink.com 1.10,2013-07-02 14:58:00,
2013-07-02 11:13:00,59.9,57.0,30.00,NE,34,3.0,-999.0,91,-99.99,,,0.22,weatherlink.com 1.10,2013-07-02 15:13:00,
2013-07-02 11:29:00,60.2,58.0,30.00,ENE,69,0.0,-999.0,91,-99.99,,,0.22,weatherlink.com 1.10,2013-07-02 15:29:00,
2013-07-02 11:44:00,60.6,58.0,30.00,East,101,2.0,-999.0,91,-99.99,,,0.22,weatherlink.com 1.10,2013-07-02 15:44:00,
2013-07-02 11:59:00,60.6,58.0,30.00,NE,55,0.0,-999.0,92,-99.99,,,0.22,weatherlink.com 1.10,2013-07-02 15:59:00,
2013-07-02 12:14:00,60.6,58.0,30.00,NE,55,0.0,-999.0,92,-99.99,,,0.30,weatherlink.com 1.10,2013-07-02 16:14:00,
2013-07-02 12:29:00,60.9,59.0,29.99,ENE,65,1.0,-999.0,93,-99.99,,,0.32,weatherlink.com 1.10,2013-07-02 16:29:00,
2013-07-02 12:44:00,61.7,60.0,29.99,ENE,65,0.0,-999.0,93,-99.99,,,0.32,weatherlink.com 1.10,2013-07-02 16:44:00,
2013-07-02 12:59:00,61.9,60.0,29.99,East,90,6.0,-999.0,93,-99.99,,,0.32,weatherlink.com 1.10,2013-07-02 16:59:00,
2013-07-02 13:14:00,63.0,61.0,29.99,ENE,70,0.0,-999.0,92,-99.99,,,0.32,weatherlink.com 1.10,2013-07-02 17:14:00,
2013-07-02 13:29:00,63.4,61.0,29.99,ENE,76,4.0,-999.0,91,-99.99,,,0.32,weatherlink.com 1.10,2013-07-02 17:29:00,
2013-07-02 13:44:00,63.6,61.0,29.99,ENE,63,4.0,-999.0,91,-99.99,,,0.32,weatherlink.com 1.10,2013-07-02 17:44:00,
2013-07-02 13:59:00,63.7,61.0,29.99,East,82,2.0,-999.0,90,-99.99,,,0.32,weatherlink.com 1.10,2013-07-02 17:59:00,
2013-07-02 14:14:00,63.8,61.0,29.99,East,81,0.0,-999.0,91,-99.99,,,0.32,weatherlink.com 1.10,2013-07-02 18:14:00,
2013-07-02 14:29:00,63.5,61.0,29.99,ENE,74,1.0,-999.0,91,-99.99,,,0.32,weatherlink.com 1.10,2013-07-02 18:29:00,
2013-07-02 14:44:00,63.4,61.0,29.99,East,83,0.0,-999.0,91,-99.99,,,0.32,weatherlink.com 1.10,2013-07-02 18:44:00,
2013-07-02 15:00:00,63.4,61.0,29.99,East,83,0.0,-999.0,91,-99.99,,,0.32,weatherlink.com 1.10,2013-07-02 19:00:00,
2013-07-02 15:15:00,63.8,62.0,29.99,East,84,4.0,-999.0,92,-99.99,,,0.32,weatherlink.com 1.10,2013-07-02 19:15:00,
2013-07-02 15:30:00,63.8,62.0,29.99,East,82,0.0,-999.0,92,-99.99,,,0.32,weatherlink.com 1.10,2013-07-02 19:30:00,
2013-07-02 15:45:00,64.1,62.0,29.99,East,83,0.0,-999.0,92,-99.99,,,0.32,weatherlink.com 1.10,2013-07-02 19:45:00,
2013-07-02 16:00:00,64.1,62.0,29.98,East,83,0.0,-999.0,92,-99.99,,,0.32,weatherlink.com 1.10,2013-07-02 20:00:00,
2013-07-02 16:15:00,64.3,62.0,29.98,East,83,0.0,-999.0,93,-99.99,,,0.32,weatherlink.com 1.10,2013-07-02 20:15:00,
2013-07-02 16:30:00,64.0,62.0,29.98,East,83,0.0,-999.0,93,-99.99,,,0.32,weatherlink.com 1.10,2013-07-02 20:30:00,
2013-07-02 16:45:00,63.7,62.0,29.98,East,82,0.0,-999.0,93,-99.99,,,0.32,weatherlink.com 1.10,2013-07-02 20:45:00,
2013-07-02 17:00:00,63.8,62.0,29.98,East,79,0.0,-999.0,93,-99.99,,,0.32,weatherlink.com 1.10,2013-07-02 21:00:00,
2013-07-02 17:15:00,63.8,62.0,29.97,ENE,78,0.0,-999.0,94,-99.99,,,0.32,weatherlink.com 1.10,2013-07-02 21:15:00,
2013-07-02 17:30:00,64.1,62.0,29.97,NE,51,0.0,-999.0,94,-99.99,,,0.32,weatherlink.com 1.10,2013-07-02 21:30:00,
2013-07-02 17:45:00,64.6,63.0,29.97,North,5,0.0,-999.0,94,-99.99,,,0.32,weatherlink.com 1.10,2013-07-02 21:45:00,
2013-07-02 18:16:00,65.6,64.0,29.97,North,355,0.0,-999.0,93,-99.99,,,0.32,weatherlink.com 1.10,2013-07-02 22:16:00,
2013-07-02 18:31:00,65.9,64.0,29.97,NNW,332,0.0,-999.0,92,-99.99,,,0.32,weatherlink.com 1.10,2013-07-02 22:31:00,
2013-07-02 18:46:00,66.4,64.0,29.96,NNW,333,0.0,-999.0,91,-99.99,,,0.32,weatherlink.com 1.10,2013-07-02 22:46:00,
2013-07-02 19:01:00,66.5,64.0,29.96,NNW,333,0.0,-999.0,91,-99.99,,,0.32,weatherlink.com 1.10,2013-07-02 23:01:00,
2013-07-02 19:16:00,66.7,64.0,29.97,NNW,328,0.0,-999.0,91,-99.99,,,0.32,weatherlink.com 1.10,2013-07-02 23:16:00,
2013-07-02 19:31:00,66.6,64.0,29.97,NW,321,0.0,-999.0,91,-99.99,,,0.32,weatherlink.com 1.10,2013-07-02 23:31:00,
2013-07-02 19:46:00,66.6,64.0,29.98,NW,321,0.0,-999.0,91,-99.99,,,0.32,weatherlink.com 1.10,2013-07-02 23:46:00,
2013-07-02 20:01:00,66.3,64.0,29.99,NW,321,0.0,-999.0,91,-99.99,,,0.32,weatherlink.com 1.10,2013-07-03 00:01:00,
2013-07-02 20:16:00,66.3,64.0,29.99,NW,321,0.0,-999.0,91,-99.99,,,0.32,weatherlink.com 1.10,2013-07-03 00:16:00,
2013-07-02 20:31:00,66.2,64.0,29.98,NW,321,0.0,-999.0,92,-99.99,,,0.32,weatherlink.com 1.10,2013-07-03 00:31:00,
2013-07-02 20:46:00,65.9,64.0,29.98,NW,321,0.0,-999.0,92,-99.99,,,0.32,weatherlink.com 1.10,2013-07-03 00:46:00,
2013-07-02 21:01:00,65.6,63.0,29.98,NW,321,0.0,-999.0,92,-99.99,,,0.32,weatherlink.com 1.10,2013-07-03 01:01:00,
2013-07-02 21:16:00,65.4,63.0,29.98,NW,321,4.0,-999.0,93,-99.99,,,0.32,weatherlink.com 1.10,2013-07-03 01:16:00,
2013-07-02 21:32:00,65.3,63.0,29.97,NW,321,0.0,-999.0,93,-99.99,,,0.32,weatherlink.com 1.10,2013-07-03 01:32:00,
2013-07-02 21:47:00,65.1,63.0,29.98,NW,323,0.0,-999.0,93,-99.99,,,0.32,weatherlink.com 1.10,2013-07-03 01:47:00,
2013-07-02 22:02:00,65.0,63.0,29.98,NW,323,0.0,-999.0,93,-99.99,,,0.32,weatherlink.com 1.10,2013-07-03 02:02:00,
2013-07-02 22:17:00,64.7,63.0,29.98,NW,323,0.0,-999.0,93,-99.99,,,0.32,weatherlink.com 1.10,2013-07-03 02:17:00,
2013-07-02 22:32:00,64.4,62.0,29.99,NW,323,0.0,-999.0,93,-99.99,,,0.32,weatherlink.com 1.10,2013-07-03 02:32:00,
2013-07-02 22:47:00,64.2,63.0,29.98,NW,323,0.0,-999.0,94,-99.99,,,0.32,weatherlink.com 1.10,2013-07-03 02:47:00,
2013-07-02 23:02:00,64.2,63.0,29.99,NW,323,0.0,-999.0,94,-99.99,,,0.32,weatherlink.com 1.10,2013-07-03 03:02:00,
2013-07-02 23:17:00,64.2,63.0,29.99,NW,323,0.0,-999.0,94,-99.99,,,0.32,weatherlink.com 1.10,2013-07-03 03:17:00,
2013-07-02 23:32:00,64.1,62.0,29.99,NW,323,0.0,-999.0,94,-99.99,,,0.32,weatherlink.com 1.10,2013-07-03 03:32:00,
2013-07-02 23:47:00,64.1,62.0,29.99,NW,323,0.0,-999.0,94,-99.99,,,0.32,weatherlink.com 1.10,2013-07-03 03:47:00,